TimeEST,TemperatureF,Dew PointF,Humidity,Sea Level PressureIn,VisibilityMPH,Wind Direction,Wind SpeedMPH,Gust SpeedMPH,PrecipitationIn,Events,Conditions,WindDirDegrees,DateUTC
12:56 AM,48.0,37.0,66,29.98,10.0,West,12.7,-,N/A,,Scattered Clouds,260,2013-11-10 05:56:00
1:56 AM,46.9,37.0,68,29.99,10.0,West,15.0,-,N/A,,Partly Cloudy,270,2013-11-10 06:56:00
2:56 AM,45.0,36.0,71,30.00,10.0,West,12.7,-,N/A,,Clear,260,2013-11-10 07:56:00
3:56 AM,44.1,36.0,73,29.99,10.0,West,11.5,-,N/A,,Scattered Clouds,260,2013-11-10 08:56:00
4:56 AM,44.1,35.1,71,30.01,10.0,West,13.8,-,N/A,,Partly Cloudy,270,2013-11-10 09:56:00
5:56 AM,44.1,35.1,71,30.02,10.0,West,16.1,21.9,N/A,,Overcast,280,2013-11-10 10:56:00
6:17 AM,44.6,35.6,71,30.01,10.0,West,15.0,20.7,N/A,,Overcast,280,2013-11-10 11:17:00
6:31 AM,42.8,33.8,70,30.02,10.0,West,18.4,27.6,N/A,,Mostly Cloudy,270,2013-11-10 11:31:00
6:56 AM,42.1,32.0,67,30.04,10.0,West,25.3,34.5,N/A,,Overcast,280,2013-11-10 11:56:00
7:56 AM,41.0,30.0,65,30.08,10.0,West,16.1,26.5,N/A,,Overcast,280,2013-11-10 12:56:00
8:56 AM,39.9,30.0,68,30.12,10.0,WNW,15.0,-,N/A,,Overcast,290,2013-11-10 13:56:00
9:56 AM,42.1,28.0,58,30.14,10.0,WNW,13.8,25.3,N/A,,Overcast,300,2013-11-10 14:56:00
10:56 AM,42.1,27.0,55,30.17,10.0,WNW,16.1,23.0,N/A,,Overcast,290,2013-11-10 15:56:00
11:56 AM,41.0,28.0,60,30.20,10.0,West,17.3,25.3,N/A,,Overcast,280,2013-11-10 16:56:00
12:56 PM,42.1,30.0,62,30.20,10.0,WNW,17.3,-,N/A,,Overcast,290,2013-11-10 17:56:00
1:56 PM,43.0,30.0,60,30.22,10.0,West,18.4,24.2,N/A,,Overcast,280,2013-11-10 18:56:00
2:56 PM,43.0,30.9,62,30.23,10.0,West,18.4,28.8,N/A,,Overcast,280,2013-11-10 19:56:00
3:56 PM,44.1,30.0,58,30.25,10.0,West,17.3,23.0,N/A,,Overcast,280,2013-11-10 20:56:00
4:56 PM,41.0,30.0,65,30.27,10.0,West,9.2,-,N/A,,Mostly Cloudy,280,2013-11-10 21:56:00
5:56 PM,37.0,28.9,73,30.29,10.0,West,6.9,-,N/A,,Clear,260,2013-11-10 22:56:00
6:56 PM,34.0,28.0,79,30.30,10.0,West,4.6,-,N/A,,Clear,260,2013-11-10 23:56:00
7:56 PM,35.1,28.0,76,30.31,10.0,WSW,4.6,-,N/A,,Clear,250,2013-11-11 00:56:00
8:56 PM,33.1,27.0,78,30.32,10.0,West,5.8,-,N/A,,Clear,260,2013-11-11 01:56:00
9:56 PM,30.0,26.1,85,30.32,10.0,West,4.6,-,N/A,,Clear,270,2013-11-11 02:56:00
10:56 PM,30.9,27.0,85,30.32,10.0,WSW,4.6,-,N/A,,Clear,250,2013-11-11 03:56:00
11:56 PM,30.9,27.0,85,30.30,10.0,SW,3.5,-,N/A,,Clear,220,2013-11-11 04:56:00